Flag for USA

Past Weather in Austin, Texas, USA — Yesterday and Last 2 Weeks

Now
79 °F

Passing clouds.


Feels Like: 82 °F
Forecast: 99 / 79 °F
Wind: 5 mph from North

Location: Camp Mabry / Austin City

Current Time: Jul 10, 2020 at 5:12:53 am

Latest Report: Jul 10, 2020 at 4:51 am


Visibility: 10 mi

Pressure: 29.92 "Hg

Humidity: 82%

Dew Point: 73 °F

Location of AustinLocation

Past Weather in Austin — Graph

°F

Austin Temperature Yesterday

Maximum temperature yesterday: 100 °F (at 3:51 pm)
Minimum temperature yesterday: 80 °F (at 6:51 am)
Average temperature yesterday: 88 °F

High & Low Weather Summary for the Past Weeks

 TemperatureHumidityPressure
High100 °F (Jul 4, 3:51 pm)93% (Jun 26, 10:51 am)30.13 "Hg (Jun 26, 10:51 am)
Low71 °F (Jun 25, 6:51 am)28% (Jul 4, 4:51 pm)29.73 "Hg (Jun 28, 6:51 pm)
Average84 °F67%29.89 "Hg
* Reported Jun 25 4:51 am — Jul 10 4:05 am, Austin. Weather by CustomWeather, © 2020

Note: Actual official high and low records may vary slightly from our data, if they occured in-between our weather recording intervals... More about our weather records

Austin Weather History for the Previous 24 Hours

Scroll right to see more
 ConditionsComfort  
Time TempWeatherWind HumidityBarometerVisibility
4:05 am
Fri, Jul 10
79 °FPassing clouds.5 mph82%29.96 "Hg10 mi
3:51 am79 °FPassing clouds.6 mph82%29.91 "Hg10 mi
2:51 am80 °FPassing clouds.6 mph79%29.90 "Hg10 mi
1:51 am81 °FPassing clouds.6 mph77%29.90 "Hg10 mi
1:32 am81 °FPassing clouds.N/A77%29.96 "Hg10 mi
12:51 am82 °FPassing clouds.7 mph74%29.91 "Hg10 mi
11:51 pm
Thu, Jul 9
83 °FClear.7 mph68%29.90 "Hg10 mi
10:51 pm86 °FClear.9 mph59%29.88 "Hg10 mi
9:51 pm87 °FClear.9 mph55%29.86 "Hg10 mi
8:51 pm91 °FClear.10 mph49%29.83 "Hg10 mi
7:51 pm94 °FSunny.9 mph41%29.82 "Hg10 mi
6:51 pm97 °FPassing clouds.9 mph39%29.82 "Hg10 mi
5:51 pm98 °FPartly sunny.12 mph36%29.82 "Hg10 mi
4:51 pm98 °FScattered clouds.7 mph38%29.82 "Hg10 mi
3:51 pm100 °FPassing clouds.6 mph37%29.82 "Hg10 mi
2:51 pm98 °FBroken clouds.7 mph40%29.85 "Hg10 mi
1:51 pm96 °FPartly sunny.8 mph44%29.86 "Hg10 mi
12:51 pm96 °FPassing clouds.10 mph44%29.87 "Hg10 mi
11:51 am93 °FPartly sunny.7 mph49%29.87 "Hg10 mi
10:51 am89 °FScattered clouds.9 mph55%29.88 "Hg10 mi
9:51 am87 °FScattered clouds.9 mph63%29.87 "Hg10 mi
9:26 am86 °FScattered clouds.N/A65%29.92 "Hg10 mi
8:51 am84 °FBroken clouds.8 mph72%29.87 "Hg10 mi
8:34 am82 °FPartly sunny.7 mph77%29.92 "Hg10 mi
7:58 am81 °FPartly sunny.3 mph79%29.92 "Hg8 mi
7:35 am80 °FPartly sunny.5 mph81%29.91 "Hg8 mi
6:51 am80 °FBroken clouds.N/A79%29.86 "Hg10 mi
5:51 am81 °FPassing clouds.5 mph77%29.85 "Hg10 mi
5:20 am81 °FMostly cloudy.6 mph77%29.91 "Hg10 mi
Weather by CustomWeather, © 2020

See weather overview